Wind_Speed
16 16 16 16 16 17 17 17 16 16 16 17 18 18 19 19 20 20 20 21 22 23 24 25 24 24 24 24 24 25 26 26 25 25 25 25 25 26 26 25 25 27 28
16 15 15 15 16 16 16 15 15 15 17 17 18 18 18 18 18 19 20 21 22 22 23 23 23 24 24 24 25 26 26 26 27 26 26 25 25 25 26 27 26 27 27
15 15 15 15 15 15 15 15 15 16 16 17 17 17 17 17 18 19 20 20 21 22 22 22 23 23 23 24 25 25 26 27 27 27 27 26 26 25 26 26 27 27 27
15 15 16 16 15 15 15 15 16 16 17 17 17 16 17 17 18 19 19 20 21 21 22 22 23 23 23 24 24 25 26 26 26 27 27 27 27 27 27 27 27 28 28
16 16 16 15 15 14 14 15 16 16 17 17 17 16 17 17 18 19 19 21 21 22 22 23 23 23 24 25 25 25 26 26 27 27 27 27 27 27 27 28 28 28 28
16 16 16 15 15 15 16 16 16 17 17 17 17 17 17 18 19 19 20 21 21 22 22 23 23 23 24 25 26 26 26 26 26 27 27 27 27 27 27 27 27 28 28
17 16 16 15 15 15 15 16 17 17 17 16 17 17 17 18 19 20 21 22 22 23 23 23 24 24 24 24 24 24 25 25 25 25 25 25 25 26 26 26 27 28 28
16 16 16 15 15 15 15 16 17 17 17 16 17 17 17 19 20 21 22 22 22 23 24 24 24 24 24 24 24 25 24 24 24 24 24 25 24 24 25 25 26 26 26
16 16 15 16 15 16 16 16 16 17 16 16 16 17 18 19 20 20 21 21 22 23 23 24 24 24 24 24 24 24 24 23 23 23 24 24 24 25 25 25 25 25 25
16 15 16 16 16 16 16 16 17 17 15 15 16 17 18 18 19 20 20 21 22 22 23 23 23 23 23 24 24 23 23 23 23 23 23 23 24 24 25 25 25 25 25
16 16 16 16 17 17 16 17 17 17 16 16 17 17 18 19 19 20 19 20 22 23 23 23 23 23 23 24 24 24 24 23 23 23 23 23 23 23 23 24 24 24 24
16 16 17 17 17 17 17 17 17 17 17 18 18 18 18 19 20 20 20 21 22 23 23 23 23 23 23 24 24 23 23 23 23 23 23 23 22 22 22 21 21 21 21
17 17 17 17 17 18 17 17 17 17 17 18 19 19 19 20 20 20 21 22 22 22 22 23 23 24 23 23 24 23 23 22 22 22 22 21 20 20 20 19 19 19 20
16 17 17 17 17 17 18 18 17 17 18 18 19 19 19 20 20 20 21 21 22 22 22 22 23 23 23 23 23 22 22 22 22 21 20 19 19 19 19 19 18 18 19
17 17 17 17 17 17 18 18 18 18 18 18 18 19 20 20 20 21 21 22 22 22 23 23 23 23 23 23 22 21 21 21 20 19 19 19 19 18 18 18 18 18 19
17 16 16 18 17 18 18 18 18 19 18 18 18 19 19 20 21 21 22 22 23 23 23 23 24 24 24 23 22 21 20 21 20 20 19 19 18 18 18 18 17 17 18
16 16 17 17 18 18 18 18 19 18 18 19 19 20 20 21 21 21 21 22 22 23 23 23 24 24 24 22 21 20 19 19 19 19 19 18 18 18 17 17 16 16 17
16 16 17 17 17 18 18 19 19 18 18 19 19 20 21 21 21 22 22 23 23 24 23 23 23 23 23 22 21 20 18 18 18 18 18 18 17 17 17 17 16 16 17
16 16 16 17 18 18 18 18 19 19 19 20 20 20 21 22 22 22 22 23 23 23 23 23 22 22 21 21 20 19 18 18 18 18 17 17 17 16 16 16 16 16 16
16 17 17 17 18 18 19 19 20 20 20 20 21 21 21 22 22 21 22 23 24 23 24 23 22 22 21 20 20 19 19 18 18 18 18 17 16 16 16 16 16 16 16
16 17 17 17 18 18 19 19 20 21 21 21 21 21 22 22 22 22 22 23 23 23 23 22 21 21 20 20 20 20 19 19 18 18 17 17 17 17 16 16 16 15 15
17 17 17 17 18 19 19 20 20 20 21 22 22 21 22 22 22 22 22 21 22 22 22 21 21 21 20 20 20 20 20 19 19 18 17 17 17 17 17 16 16 15 14
16 16 16 17 18 19 20 20 20 20 21 22 22 22 22 22 23 22 21 21 21 22 21 21 20 20 20 20 20 20 20 20 19 18 17 17 16 16 16 16 15 14 14
16 16 17 18 18 19 20 20 20 20 21 21 22 22 22 22 21 21 20 20 21 21 21 21 20 20 19 19 20 20 19 19 18 18 17 17 16 16 16 16 15 14 15
16 16 17 18 18 19 19 20 20 20 21 21 21 21 21 21 21 21 21 21 20 21 20 20 19 19 19 19 20 19 19 18 18 17 17 17 17 16 16 15 15 14 15
16 17 18 18 18 19 19 20 20 20 21 21 21 21 21 21 21 21 21 21 20 20 20 19 19 19 18 19 19 19 18 18 18 18 18 18 17 16 16 15 15 15 15
Wind_Direction
311 310 310 309 306 303 300 298 296 295 294 294 294 293 293 293 294 294 293 294 295 296 294 292 291 290 289 287 287 287 288 287 286 285 283 280 278 275 272 269 269 267 266
315 313 312 312 308 305 303 302 300 300 299 298 297 296 296 296 295 295 297 299 300 299 298 295 293 291 290 288 287 286 287 287 287 285 283 282 278 276 274 272 271 269 267
324 321 319 316 313 309 305 303 303 304 304 303 302 300 299 298 298 298 299 302 302 301 300 298 295 293 293 292 289 288 286 286 286 285 282 280 278 277 275 276 274 271 269
329 328 326 320 316 314 310 309 308 308 308 308 305 303 301 300 299 301 302 303 304 304 303 300 298 297 296 294 292 291 290 289 288 286 283 281 279 279 277 276 275 274 273
331 329 330 328 324 320 316 315 315 312 309 308 306 303 302 302 302 304 305 306 307 305 303 300 298 297 296 294 294 294 293 291 289 287 285 284 282 280 278 278 278 277 276
330 329 329 328 325 323 319 317 317 315 313 310 307 304 303 305 305 304 305 306 306 307 306 304 302 300 297 296 296 295 294 294 291 288 286 285 283 282 280 279 279 277 276
328 327 327 326 325 322 321 321 318 315 312 310 309 307 306 307 305 305 307 308 309 308 307 306 305 303 301 301 300 297 296 294 292 290 287 286 285 284 282 281 279 278 277
329 327 325 327 328 325 322 323 320 318 316 312 311 310 309 309 308 307 309 310 310 310 309 308 308 308 306 305 303 301 299 296 293 290 288 288 287 285 284 283 281 280 278
334 331 328 327 329 328 325 324 324 321 318 316 314 314 314 313 313 313 312 311 312 313 313 312 311 309 308 307 306 304 303 299 297 294 292 289 287 287 286 286 283 282 281
336 333 331 330 331 330 328 326 326 328 325 323 321 320 319 317 315 314 315 315 315 315 314 314 314 312 311 310 308 307 305 302 300 298 295 292 291 290 288 286 284 282 281
332 330 330 331 334 333 329 328 328 329 328 327 324 323 322 321 320 318 318 318 317 317 316 316 316 314 312 310 309 308 306 303 302 301 299 296 294 293 291 288 285 283 281
327 328 328 329 331 331 329 328 326 325 327 328 327 326 324 324 323 321 321 321 319 319 319 319 318 316 313 312 311 310 309 307 305 304 301 298 296 295 293 290 287 285 282
325 326 326 326 329 329 328 327 326 325 326 328 328 327 326 325 325 324 323 322 322 322 322 322 320 319 317 316 315 313 312 310 308 307 306 304 301 299 296 293 290 288 287
325 325 325 326 330 330 329 329 329 327 326 327 328 327 326 326 326 324 322 321 322 322 323 324 323 322 320 318 316 315 313 312 311 310 309 305 301 300 299 297 296 292 289
320 322 324 328 331 332 331 330 330 329 327 327 327 327 327 327 327 325 325 326 325 324 324 326 325 324 322 320 318 317 315 315 314 313 311 308 304 302 302 301 297 293 290
316 318 321 324 327 327 328 328 330 330 328 327 327 327 328 329 328 328 327 328 330 330 329 330 329 328 327 324 320 319 319 319 317 315 313 311 308 305 304 302 298 294 291
311 312 316 321 324 324 326 328 329 329 328 327 326 327 328 329 330 331 331 331 332 332 332 331 332 332 331 329 325 321 321 321 320 317 315 312 310 307 306 304 301 297 295
311 312 315 318 320 322 323 325 327 327 327 326 325 327 328 330 330 331 332 332 332 332 332 332 332 333 333 332 330 327 325 324 323 321 318 317 315 311 308 307 304 301 299
310 312 314 315 318 321 322 324 327 328 329 328 328 328 328 328 329 330 331 332 333 333 333 332 332 333 333 334 333 331 329 328 326 324 321 318 318 317 315 312 310 308 305
307 310 313 314 317 320 322 324 326 328 329 329 329 327 327 327 328 330 331 331 332 332 332 331 332 333 333 334 334 333 331 329 326 325 324 322 321 319 318 316 313 313 312
309 311 313 315 317 319 321 322 324 326 327 327 328 328 328 327 327 329 332 332 331 332 333 333 334 335 334 334 335 334 334 332 330 328 326 324 322 320 318 317 317 318 318
309 309 311 314 316 318 320 321 323 325 326 327 328 329 329 329 329 329 330 331 333 334 335 335 336 337 337 337 336 335 334 334 332 330 327 324 323 322 320 319 319 318 317
307 308 309 311 314 318 320 322 324 326 326 327 328 329 330 330 331 331 330 331 333 333 334 333 334 335 336 337 336 336 335 334 334 334 332 331 330 328 326 323 321 320 316
306 308 310 312 315 317 318 321 323 326 327 328 329 330 331 331 332 332 332 332 333 334 333 332 331 332 334 336 337 337 337 338 338 337 335 333 331 331 329 327 323 320 319
304 306 308 311 314 316 317 320 322 325 328 329 330 331 332 332 332 332 332 333 334 335 335 334 334 333 334 336 337 336 337 337 339 339 337 334 331 330 331 332 329 326 324
302 305 308 310 313 315 317 320 322 325 327 328 329 330 331 331 331 331 332 333 335 336 335 334 334 333 334 335 336 337 339 340 339 339 339 338 336 334 333 333 333 329 327
Height
5758 5756 5754 5752 5751 5749 5748 5747 5746 5744 5743 5742 5741 5739 5738 5737 5735 5734 5732 5731 5729 5727 5725 5723 5722 5720 5718 5717 5715 5713 5712 5710 5709 5708 5707 5706 5705 5704 5704 5703 5703 5703 5703
5755 5753 5751 5749 5747 5746 5744 5743 5742 5740 5739 5737 5736 5734 5733 5732 5730 5729 5727 5725 5723 5721 5719 5717 5715 5713 5711 5709 5707 5706 5704 5703 5701 5700 5699 5698 5697 5696 5695 5694 5694 5695 5695
5752 5750 5747 5745 5744 5742 5741 5739 5738 5736 5734 5733 5731 5730 5728 5727 5725 5724 5722 5720 5718 5715 5713 5711 5708 5706 5704 5701 5700 5698 5697 5695 5693 5692 5691 5690 5689 5688 5687 5686 5686 5686 5686
5750 5747 5745 5743 5741 5739 5738 5736 5734 5732 5731 5728 5726 5725 5724 5722 5721 5719 5717 5714 5712 5710 5707 5705 5702 5699 5697 5695 5693 5691 5689 5687 5685 5684 5683 5682 5681 5680 5679 5678 5678 5677 5677
5748 5745 5743 5741 5739 5737 5735 5733 5731 5729 5727 5725 5723 5721 5720 5718 5716 5714 5712 5709 5707 5704 5701 5699 5696 5693 5691 5688 5686 5683 5681 5679 5677 5675 5674 5673 5672 5671 5670 5670 5669 5669 5669
5746 5744 5741 5739 5737 5735 5732 5730 5728 5726 5723 5721 5719 5717 5716 5714 5712 5709 5707 5704 5701 5699 5696 5692 5689 5687 5684 5681 5679 5676 5674 5671 5669 5667 5666 5665 5663 5662 5662 5661 5661 5660 5660
5744 5742 5739 5737 5735 5732 5730 5728 5725 5722 5719 5717 5715 5713 5711 5709 5707 5705 5702 5699 5696 5693 5690 5687 5683 5680 5678 5675 5672 5669 5666 5663 5661 5659 5658 5656 5655 5654 5653 5653 5652 5651 5651
5742 5740 5737 5735 5732 5730 5728 5725 5722 5719 5716 5714 5712 5710 5708 5705 5703 5700 5697 5694 5691 5688 5685 5681 5678 5674 5671 5668 5665 5662 5659 5657 5654 5652 5650 5649 5647 5646 5645 5644 5643 5642 5642
5740 5738 5735 5733 5730 5728 5726 5723 5719 5716 5713 5711 5709 5706 5704 5701 5698 5695 5692 5689 5686 5683 5680 5676 5673 5669 5665 5661 5658 5655 5653 5650 5647 5645 5643 5641 5640 5638 5637 5636 5635 5634 5633
5739 5737 5734 5731 5729 5726 5723 5720 5716 5713 5711 5709 5706 5703 5700 5697 5694 5691 5688 5685 5682 5678 5675 5671 5667 5663 5659 5655 5652 5649 5646 5644 5641 5639 5637 5634 5633 5631 5629 5628 5626 5625 5625
5737 5735 5732 5729 5727 5724 5720 5717 5714 5711 5708 5706 5703 5700 5697 5694 5690 5687 5684 5680 5677 5674 5670 5666 5662 5658 5654 5650 5646 5643 5640 5637 5635 5632 5630 5628 5625 5624 5622 5620 5618 5617 5617
5735 5733 5730 5727 5724 5721 5718 5715 5712 5709 5706 5703 5700 5697 5693 5690 5687 5683 5680 5677 5673 5669 5665 5661 5657 5653 5649 5645 5641 5638 5634 5631 5629 5626 5624 5621 5619 5617 5615 5613 5611 5610 5609
5733 5730 5728 5725 5721 5718 5715 5712 5709 5706 5703 5700 5697 5693 5690 5687 5683 5680 5676 5672 5669 5665 5661 5656 5652 5648 5644 5640 5636 5632 5629 5626 5623 5620 5617 5615 5613 5611 5609 5607 5605 5604 5603
5730 5728 5725 5722 5719 5716 5712 5709 5706 5703 5700 5697 5694 5690 5687 5684 5680 5676 5672 5668 5665 5661 5656 5652 5648 5643 5639 5635 5631 5627 5624 5620 5617 5614 5612 5609 5607 5605 5603 5601 5599 5598 5597
5728 5725 5722 5719 5716 5713 5710 5706 5703 5700 5696 5694 5690 5687 5684 5680 5676 5672 5668 5664 5660 5656 5652 5648 5643 5639 5634 5630 5626 5622 5619 5615 5612 5610 5607 5604 5602 5599 5597 5595 5594 5592 5591
5724 5722 5719 5716 5713 5710 5707 5704 5700 5696 5693 5690 5687 5683 5680 5676 5672 5668 5664 5660 5656 5652 5647 5643 5639 5634 5629 5625 5621 5617 5613 5610 5607 5604 5602 5599 5596 5594 5592 5590 5588 5587 5585
5720 5718 5715 5713 5710 5707 5704 5700 5697 5693 5690 5687 5683 5680 5676 5673 5669 5665 5661 5657 5652 5648 5644 5639 5635 5630 5625 5621 5616 5612 5609 5606 5603 5599 5596 5594 5591 5589 5587 5585 5583 5581 5580
5716 5714 5712 5709 5706 5703 5700 5696 5693 5690 5687 5683 5680 5676 5673 5669 5665 5661 5657 5653 5649 5644 5640 5635 5631 5626 5621 5617 5612 5608 5605 5601 5598 5595 5592 5589 5586 5584 5582 5580 5578 5576 5574
5712 5710 5707 5705 5702 5699 5696 5692 5689 5686 5683 5679 5676 5673 5669 5665 5661 5657 5653 5649 5645 5640 5636 5631 5627 5622 5617 5613 5609 5605 5601 5597 5594 5591 5588 5585 5582 5580 5578 5576 5573 5571 5569
5708 5706 5703 5701 5698 5695 5692 5689 5685 5682 5679 5675 5672 5668 5665 5661 5657 5653 5649 5645 5641 5636 5632 5627 5623 5618 5614 5610 5605 5601 5598 5594 5591 5588 5585 5582 5579 5576 5574 5571 5569 5567 5565
5704 5701 5699 5697 5694 5691 5688 5685 5681 5678 5675 5671 5668 5664 5660 5656 5653 5649 5645 5641 5637 5632 5628 5624 5619 5615 5611 5607 5603 5599 5595 5591 5588 5584 5581 5578 5575 5572 5570 5567 5565 5563 5561
5699 5697 5695 5693 5690 5687 5684 5681 5677 5674 5671 5667 5664 5660 5656 5652 5648 5645 5641 5637 5633 5629 5624 5620 5616 5612 5608 5604 5600 5596 5592 5588 5584 5581 5578 5575 5572 5569 5566 5563 5561 5558 5557
5694 5692 5691 5688 5686 5683 5680 5677 5673 5670 5667 5663 5660 5656 5652 5648 5644 5641 5637 5633 5629 5625 5621 5617 5613 5609 5605 5601 5597 5593 5589 5585 5581 5578 5575 5572 5569 5565 5562 5560 5557 5555 5553
5690 5688 5686 5684 5681 5678 5675 5672 5669 5666 5663 5659 5656 5652 5648 5644 5641 5637 5633 5629 5625 5621 5617 5614 5610 5606 5602 5598 5594 5590 5586 5582 5579 5575 5572 5569 5566 5563 5559 5556 5554 5551 5549
5685 5683 5681 5679 5677 5674 5671 5668 5665 5662 5658 5655 5652 5648 5644 5641 5637 5633 5629 5625 5621 5618 5614 5610 5606 5603 5599 5595 5592 5588 5584 5580 5576 5573 5570 5566 5563 5559 5556 5553 5550 5548 5545
5681 5679 5677 5675 5672 5670 5667 5664 5661 5658 5654 5651 5648 5644 5641 5637 5633 5629 5625 5622 5618 5614 5611 5607 5603 5600 5596 5593 5589 5585 5582 5578 5574 5571 5567 5564 5560 5557 5553 5550 5547 5545 5542